Location: Mohawk View
(42.7837°N, 73.7885°W)
Time: 05:38:57
(UTC+00:00)

IRIDIUM 104 - Pass Details

Date: 17 June 2021
Orbit: 776 x 779 km, 86.4° (Epoch: 03 August)

Event Time Altitude Azimuth Distance (km) Brightness Sun altitude
Rises 07:39:19 0° 356° (N) 3,272 8.4 -13.9°
Reaches altitude 10° 07:41:40 10° 356° (N) 2,339 7.5 -13.6°
Maximum altitude 07:46:55 86° 269° (W) 786 4.3 -13.0°
Drops below altitude 10° 07:52:07 10° 180° (S) 2,320 6.3 -12.4°
Enters shadow 07:52:23 - 180° (S) 2,423 6.4 -12.4°
